SCP
0 -0 -0 -0 -1 -1 -1 -1 -1 -1 -0 -1 -1 -1 -1 -0 -0 -0 -0 -0 -0 -0 0 0 0 0 0 0 -0 -0 -0 -0 -0 -0 0 0 0 0 0 0 0 0 0
-0 -0 -0 -0 -1 -1 -1 -1 -1 -0 -0 -0 -0 -0 -0 -0 -0 -0 -0 -0 0 0 0 0 0 0 0 0 0 -0 -0 -0 0 -0 0 0 0 0 0 0 0 0 0
0 0 0 -0 -0 -1 -1 -1 -1 -0 -0 -0 -0 -0 -0 -0 -0 -0 0 0 0 0 0 0 0 0 0 0 0 0 0 -0 -0 0 0 0 0 0 0 0 0 0 0
-0 0 0 0 -0 -0 -1 -1 -1 -0 -0 -0 -0 -0 -0 -0 -0 0 0 0 0 0 0 0 0 0 0 0 0 0 -0 -0 -0 0 0 0 0 0 0 0 0 0 0
1 1 0 0 0 -0 -1 -0 -0 -0 -0 -0 -0 -0 -0 -0 0 0 0 0 0 0 0 0 0 0 0 -0 -0 -0 -0 -0 -0 0 0 0 0 0 0 0 0 0 0
1 1 1 0 0 0 -0 -0 -0 -0 -0 -0 -0 -0 -0 0 0 0 0 0 0 0 0 0 0 0 0 -0 -0 -0 -0 -0 -0 -0 -0 0 0 0 0 0 0 0 0
2 1 1 1 1 0 0 -0 -0 -0 -0 -0 -0 -0 -0 0 0 0 0 0 0 0 0 0 0 0 -0 -0 -0 -0 -0 -0 -0 -0 -0 0 0 0 0 0 0 0 0
2 2 2 1 1 1 0 0 0 -0 -0 -0 -0 -0 -0 0 0 -0 -0 -0 -0 -0 0 -0 -0 -0 -0 -0 -0 -0 -0 -0 -0 -0 -0 0 0 0 0 0 0 0 0
2 3 4 3 2 1 1 0 0 0 0 0 0 0 0 -0 -0 -0 -0 -0 -0 -0 -0 -0 -0 -0 -0 -0 -0 -0 -0 -0 -0 -0 -0 0 -0 -0 -0 -0 0 0 0
1 1 2 3 2 2 1 1 1 0 0 0 0 0 0 0 -0 -0 -0 -0 -0 -0 -0 -0 -0 -0 -0 -0 0 -0 -0 -0 -0 -0 -0 0 0 -0 -0 -0 0 0 0
2 2 2 3 3 2 2 1 1 1 1 0 0 0 0 0 0 0 0 0 0 -0 -0 -0 -0 -0 -0 -0 -0 -0 -0 -0 -0 -0 -0 0 -0 -0 0 0 0 0 0
2 2 2 2 2 3 3 2 2 2 1 1 1 1 0 0 0 0 0 0 0 -0 -0 -0 -0 -0 -0 -0 -0 -0 -0 0 -0 -0 -0 0 0 -0 0 0 0 0 0
1 2 1 2 1 2 3 3 3 2 2 1 1 1 0 0 0 0 0 0 0 0 0 0 0 0 0 0 -0 -0 -0 0 0 0 0 0 0 -0 0 0 0 0 0
1 1 1 2 2 0 1 2 2 2 1 1 1 1 1 0 0 0 0 0 0 0 0 0 0 0 0 0 0 -0 0 0 0 0 0 0 0 0 0 0 0 0 0
1 1 0 0 0 1 3 0 1 1 1 2 1 1 1 1 1 0 0 0 0 0 0 0 0 0 0 0 0 0 0 -0 0 0 0 0 0 0 0 0 0 0 0
0 0 0 0 1 2 0 0 0 0 2 1 2 2 1 1 1 0 0 0 0 0 0 0 0 0 0 0 0 0 0 0 0 0 0 0 0 0 0 0 0 1 1
0 0 0 0 1 1 1 0 0 0 5 2 2 2 2 1 1 1 0 0 0 0 0 0 0 0 0 0 0 0 0 0 0 0 0 0 0 0 0 0 0 1 1
-0 0 0 0 1 1 0 0 0 0 0 2 4 5 3 3 1 0 0 0 0 0 0 0 0 0 0 0 0 0 0 0 0 0 0 0 0 0 0 0 0 1 1
0 0 0 0 0 0 0 0 0 0 0 1 2 3 3 4 2 1 0 0 0 0 0 0 0 0 0 0 0 0 0 0 0 0 0 0 0 0 0 0 0 1 1
0 0 0 0 0 0 0 0 1 1 0 1 1 2 2 2 2 1 1 0 0 0 0 0 0 0 0 0 0 0 0 0 0 0 0 0 0 0 0 0 0 1 1
0 0 -0 -0 -0 0 0 1 2 2 3 2 2 1 1 2 2 2 1 1 0 0 0 0 0 0 0 0 0 0 0 0 0 0 0 0 0 0 0 0 1 1 1
0 0 0 0 0 0 1 2 4 3 3 3 3 2 1 1 1 2 2 2 1 1 0 0 0 0 0 0 0 0 0 0 0 0 0 1 0 1 0 1 1 1 1
0 0 0 0 0 0 0 2 3 3 3 2 2 2 2 2 1 2 2 3 2 2 1 1 1 0 0 0 0 1 0 0 0 1 1 1 1 1 1 0 1 1 1
0 0 0 0 0 0 0 0 0 2 3 3 3 2 2 2 2 2 2 1 2 2 2 1 1 1 1 1 1 0 0 0 0 1 2 1 1 1 1 1 1 0 0
0 0 0 0 0 0 0 0 0 0 0 1 1 2 2 2 2 2 2 2 2 2 1 1 1 1 1 1 1 1 1 3 2 1 1 3 2 1 1 1 0 0 0
0 0 0 0 0 0 0 0 0 0 0 0 0 0 1 1 1 1 1 2 2 2 1 1 1 1 1 1 1 1 1 1 2 2 1 1 2 1 0 0 0 0 0
Wind_Speed_500mb
60 61 62 62 60 57 52 49 48 49 46 42 40 36 33 35 38 39 40 39 36 35 33 31 29 28 28 27 27 30 34 36 38 38 36 35 33 29 26 26 24 22 21
63 63 62 61 58 57 54 50 48 48 45 43 40 35 36 40 42 44 45 41 38 35 33 33 33 33 32 31 34 33 31 32 31 30 30 32 31 29 26 24 22 20 20
62 63 64 62 58 56 53 51 49 47 45 42 38 36 40 44 47 47 45 42 38 36 34 33 33 33 32 33 35 39 33 29 26 23 23 23 25 25 23 22 18 17 16
60 62 63 63 59 56 52 51 51 49 46 43 40 40 43 48 49 46 44 40 36 34 34 33 31 31 31 33 33 32 31 27 24 22 19 16 18 18 19 18 18 16 15
57 59 62 63 60 58 56 52 51 49 44 42 41 43 44 47 47 46 43 39 35 32 31 31 29 29 29 30 29 28 26 22 19 17 20 15 16 16 16 16 15 15 14
57 60 62 63 60 58 57 54 52 49 43 40 42 44 46 46 46 44 40 37 34 32 30 29 27 26 26 27 26 26 25 20 16 10 15 17 18 20 18 13 12 11 11
54 58 60 62 60 57 57 53 51 50 45 39 39 43 46 45 44 42 38 35 33 32 31 28 26 23 23 22 21 21 19 16 15 9 10 13 11 15 19 13 10 10 10
34 54 60 61 57 53 53 52 49 47 45 40 37 38 42 44 43 40 37 34 33 33 32 30 27 24 20 18 17 15 14 15 11 8 6 7 7 12 19 17 10 8 9
25 51 59 59 56 51 49 49 46 43 42 40 37 36 38 40 40 39 38 36 35 34 32 30 27 23 19 16 13 12 10 9 9 12 5 4 5 10 21 18 13 10 9
20 36 49 52 54 51 49 46 44 42 42 41 38 35 35 37 38 38 37 37 37 36 34 31 27 24 21 17 14 11 11 11 11 13 7 3 10 13 22 22 15 12 11
44 43 47 47 52 52 51 50 45 42 40 41 41 39 37 37 38 37 37 36 36 35 34 33 31 28 24 20 17 13 11 14 19 12 7 1 6 11 20 25 20 15 10
43 39 40 51 53 53 56 55 52 48 47 46 46 46 43 38 37 37 38 37 37 36 35 34 33 31 28 25 22 19 15 19 19 16 11 7 8 10 19 26 22 19 13
33 32 30 43 53 49 50 52 52 52 50 50 51 51 48 45 42 41 41 42 41 41 42 40 37 35 31 29 27 26 23 22 24 21 14 13 14 12 18 22 22 18 14
33 37 28 36 42 28 44 46 45 48 51 55 59 59 59 58 55 51 48 45 45 46 45 44 41 39 37 35 33 30 30 29 29 24 18 15 14 16 21 23 21 19 14
26 35 51 47 49 52 54 53 45 35 45 50 58 64 67 67 64 58 55 53 52 50 50 48 47 46 43 41 39 37 32 32 37 32 24 19 23 23 27 24 21 19 17
27 31 39 42 52 72 71 56 48 24 50 67 66 66 72 74 72 71 65 62 59 59 57 55 53 51 49 47 45 41 37 36 37 38 31 28 32 34 31 26 23 20 21
41 31 32 36 50 73 72 67 85 61 83 78 78 70 74 78 80 80 78 73 70 66 64 62 59 57 56 54 54 47 42 37 35 43 40 38 38 37 38 34 29 25 27
30 33 26 44 60 75 69 50 74 68 77 61 68 85 72 83 84 86 88 84 77 74 73 71 70 68 66 63 60 54 48 41 42 43 45 46 44 44 43 42 39 32 32
10 10 15 42 66 65 71 73 70 77 77 77 71 83 81 74 83 89 95 93 92 81 77 80 78 80 79 76 72 63 56 52 50 42 39 45 48 45 45 46 43 40 39
22 13 16 28 28 42 60 76 84 82 80 77 83 87 83 75 72 79 90 94 95 91 86 88 87 86 85 77 76 66 59 56 51 50 46 44 45 46 44 47 48 50 50
19 20 17 19 19 22 43 72 79 80 74 77 82 83 81 70 76 74 80 87 92 98 93 89 83 80 84 81 69 62 65 61 57 59 52 51 50 51 52 49 53 52 53
8 20 22 20 21 23 23 27 52 62 75 74 73 70 71 71 82 88 89 88 87 90 96 96 91 86 87 81 71 60 55 62 68 67 61 57 59 58 61 56 54 55 57
8 2 12 18 9 14 25 32 36 49 55 66 72 75 77 81 88 89 95 95 91 88 98 99 93 96 92 86 80 74 36 41 65 73 67 66 65 62 60 53 54 55 55
20 13 9 9 18 18 12 9 18 34 40 51 59 64 68 71 79 89 96 99 95 98 101 104 102 101 101 90 92 97 89 45 32 35 71 75 67 61 61 53 53 54 52
8 4 6 8 9 9 14 18 19 23 24 27 32 44 53 61 72 78 84 90 95 104 103 99 98 104 107 103 94 90 100 81 48 41 53 56 67 72 64 56 56 53 49
7 13 17 19 20 22 23 25 30 37 38 41 42 44 51 56 59 57 65 86 91 96 97 97 93 97 98 104 102 84 89 99 87 68 47 47 53 56 61 59 59 57 48
Wind_Direction_500mb
171 166 163 165 165 160 158 156 156 157 158 158 158 158 160 159 156 152 148 144 140 133 131 128 123 119 115 115 115 111 107 103 92 85 79 70 60 56 61 66 70 75 75
167 166 165 167 168 163 159 159 158 158 158 160 159 159 158 157 154 152 149 146 139 133 129 125 122 119 119 120 118 116 112 107 93 86 79 67 62 54 51 59 66 69 74
169 168 167 168 169 165 161 160 159 158 159 161 161 159 156 155 155 152 150 147 141 137 131 128 127 125 125 123 120 116 109 101 93 92 85 71 60 52 48 45 53 65 68
171 169 169 170 171 167 164 163 162 159 160 163 162 157 155 156 155 153 151 147 143 140 136 136 135 132 129 128 129 122 114 105 94 83 74 65 56 40 36 38 42 46 55
174 171 173 173 173 170 167 166 165 163 162 163 161 157 155 154 154 154 152 149 148 143 142 143 140 137 134 132 133 128 121 113 102 89 72 63 42 21 24 20 25 27 34
176 173 175 175 175 173 171 169 168 167 167 166 163 162 159 158 159 158 155 154 151 149 150 152 148 144 140 137 136 139 135 132 126 110 86 67 38 22 15 13 14 14 9
179 177 177 177 177 177 174 173 172 171 172 171 168 167 166 166 165 163 161 160 159 157 159 160 159 156 151 147 144 150 149 144 134 118 79 68 33 8 8 358 0 356 355
186 183 180 177 178 180 178 177 176 177 176 176 173 174 173 172 172 171 170 168 167 165 168 170 171 169 166 162 158 160 163 167 140 153 110 77 49 356 358 356 348 341 333
189 191 182 179 179 183 183 184 183 183 183 184 182 180 182 181 181 180 179 176 175 176 177 179 180 180 181 179 177 175 171 179 190 191 149 84 56 343 342 340 336 328 322
172 186 188 185 184 186 187 189 192 192 193 192 193 191 190 191 191 190 189 186 184 184 184 187 190 192 194 197 198 197 189 184 181 191 173 57 18 355 337 327 319 319 329
173 176 186 194 194 192 193 194 197 200 204 203 202 202 202 201 201 201 200 198 195 194 194 194 197 201 201 204 207 206 209 202 196 196 206 162 3 354 329 323 304 299 320
182 179 182 193 197 199 200 201 201 204 207 210 211 210 209 210 211 211 210 206 204 202 203 206 207 208 210 209 208 201 200 192 189 207 203 247 295 325 320 318 300 291 297
198 196 208 199 197 200 208 209 209 212 215 216 217 218 217 216 218 218 218 213 210 209 208 210 214 216 216 217 216 214 218 204 186 191 213 256 279 292 303 308 286 277 281
209 183 219 234 191 215 229 220 225 228 227 225 222 218 219 220 219 219 222 222 220 217 217 216 217 218 219 222 226 227 228 222 199 205 227 248 248 274 288 297 282 268 254
215 207 201 217 222 233 237 224 218 230 254 244 237 227 223 223 226 225 224 224 224 222 221 222 222 222 224 225 229 232 232 230 219 220 232 240 253 265 278 286 275 257 246
256 221 222 232 218 220 208 205 209 210 291 254 244 239 231 228 229 230 229 227 226 225 225 225 226 228 229 231 233 236 238 238 225 227 237 247 253 257 263 269 263 256 236
262 244 219 230 199 192 202 245 229 259 234 242 246 243 242 235 232 234 233 230 228 227 227 227 228 231 232 233 234 235 237 236 228 228 236 244 242 250 259 258 253 252 233
254 260 240 217 219 213 227 237 225 234 197 239 242 240 241 238 242 235 238 236 232 227 227 226 226 228 232 234 237 234 234 231 227 225 232 239 246 254 255 249 248 253 237
288 261 229 220 225 222 225 218 225 211 219 215 227 243 246 247 241 244 242 238 238 232 230 230 229 228 229 230 232 231 231 229 234 230 228 234 244 253 255 251 250 252 252
257 267 202 189 202 229 229 236 222 236 231 232 232 242 245 245 244 245 244 245 243 241 236 233 233 231 231 233 235 232 233 234 236 235 236 237 242 250 261 262 256 253 256
233 234 192 180 179 211 230 230 235 234 241 237 245 243 249 250 244 246 247 247 244 244 244 243 243 242 239 238 237 238 238 234 233 239 238 244 249 257 265 264 263 264 262
236 218 208 207 205 210 221 246 245 244 245 244 251 251 253 259 259 251 249 250 247 246 246 246 244 245 245 242 236 235 248 240 233 233 236 240 250 257 263 262 267 266 262
104 135 213 220 215 180 200 226 242 250 249 249 251 250 254 252 256 259 256 246 254 253 249 246 244 243 244 242 234 230 233 237 238 235 236 238 241 252 263 259 263 263 256
115 125 150 189 221 230 257 222 223 240 254 257 264 265 264 260 261 261 258 260 260 258 253 250 245 242 238 237 233 237 239 252 223 234 237 237 237 244 253 258 259 258 258
124 199 244 267 262 236 242 258 260 260 267 269 264 265 263 266 267 267 267 267 265 261 260 258 245 244 242 238 237 238 240 233 235 234 229 235 239 242 242 247 258 257 263
2 319 292 278 269 270 274 278 281 280 282 281 281 288 279 276 279 277 277 273 271 266 262 261 255 249 242 238 238 240 242 235 230 234 228 230 230 232 241 248 256 255 254
Wind_Speed_850mb
60 61 62 62 60 57 52 49 48 49 46 42 40 36 33 35 38 39 40 39 36 35 33 31 29 28 28 27 27 30 34 36 38 38 36 35 33 29 26 26 24 22 21
63 63 62 61 58 57 54 50 48 48 45 43 40 35 36 40 42 44 45 41 38 35 33 33 33 33 32 31 34 33 31 32 31 30 30 32 31 29 26 24 22 20 20
62 63 64 62 58 56 53 51 49 47 45 42 38 36 40 44 47 47 45 42 38 36 34 33 33 33 32 33 35 39 33 29 26 23 23 23 25 25 23 22 18 17 16
60 62 63 63 59 56 52 51 51 49 46 43 40 40 43 48 49 46 44 40 36 34 34 33 31 31 31 33 33 32 31 27 24 22 19 16 18 18 19 18 18 16 15
57 59 62 63 60 58 56 52 51 49 44 42 41 43 44 47 47 46 43 39 35 32 31 31 29 29 29 30 29 28 26 22 19 17 20 15 16 16 16 16 15 15 14
57 60 62 63 60 58 57 54 52 49 43 40 42 44 46 46 46 44 40 37 34 32 30 29 27 26 26 27 26 26 25 20 16 10 15 17 18 20 18 13 12 11 11
54 58 60 62 60 57 57 53 51 50 45 39 39 43 46 45 44 42 38 35 33 32 31 28 26 23 23 22 21 21 19 16 15 9 10 13 11 15 19 13 10 10 10
34 54 60 61 57 53 53 52 49 47 45 40 37 38 42 44 43 40 37 34 33 33 32 30 27 24 20 18 17 15 14 15 11 8 6 7 7 12 19 17 10 8 9
25 51 59 59 56 51 49 49 46 43 42 40 37 36 38 40 40 39 38 36 35 34 32 30 27 23 19 16 13 12 10 9 9 12 5 4 5 10 21 18 13 10 9
20 36 49 52 54 51 49 46 44 42 42 41 38 35 35 37 38 38 37 37 37 36 34 31 27 24 21 17 14 11 11 11 11 13 7 3 10 13 22 22 15 12 11
44 43 47 47 52 52 51 50 45 42 40 41 41 39 37 37 38 37 37 36 36 35 34 33 31 28 24 20 17 13 11 14 19 12 7 1 6 11 20 25 20 15 10
43 39 40 51 53 53 56 55 52 48 47 46 46 46 43 38 37 37 38 37 37 36 35 34 33 31 28 25 22 19 15 19 19 16 11 7 8 10 19 26 22 19 13
33 32 30 43 53 49 50 52 52 52 50 50 51 51 48 45 42 41 41 42 41 41 42 40 37 35 31 29 27 26 23 22 24 21 14 13 14 12 18 22 22 18 14
33 37 28 36 42 28 44 46 45 48 51 55 59 59 59 58 55 51 48 45 45 46 45 44 41 39 37 35 33 30 30 29 29 24 18 15 14 16 21 23 21 19 14
26 35 51 47 49 52 54 53 45 35 45 50 58 64 67 67 64 58 55 53 52 50 50 48 47 46 43 41 39 37 32 32 37 32 24 19 23 23 27 24 21 19 17
27 31 39 42 52 72 71 56 48 24 50 67 66 66 72 74 72 71 65 62 59 59 57 55 53 51 49 47 45 41 37 36 37 38 31 28 32 34 31 26 23 20 21
41 31 32 36 50 73 72 67 85 61 83 78 78 70 74 78 80 80 78 73 70 66 64 62 59 57 56 54 54 47 42 37 35 43 40 38 38 37 38 34 29 25 27
30 33 26 44 60 75 69 50 74 68 77 61 68 85 72 83 84 86 88 84 77 74 73 71 70 68 66 63 60 54 48 41 42 43 45 46 44 44 43 42 39 32 32
10 10 15 42 66 65 71 73 70 77 77 77 71 83 81 74 83 89 95 93 92 81 77 80 78 80 79 76 72 63 56 52 50 42 39 45 48 45 45 46 43 40 39
22 13 16 28 28 42 60 76 84 82 80 77 83 87 83 75 72 79 90 94 95 91 86 88 87 86 85 77 76 66 59 56 51 50 46 44 45 46 44 47 48 50 50
19 20 17 19 19 22 43 72 79 80 74 77 82 83 81 70 76 74 80 87 92 98 93 89 83 80 84 81 69 62 65 61 57 59 52 51 50 51 52 49 53 52 53
8 20 22 20 21 23 23 27 52 62 75 74 73 70 71 71 82 88 89 88 87 90 96 96 91 86 87 81 71 60 55 62 68 67 61 57 59 58 61 56 54 55 57
8 2 12 18 9 14 25 32 36 49 55 66 72 75 77 81 88 89 95 95 91 88 98 99 93 96 92 86 80 74 36 41 65 73 67 66 65 62 60 53 54 55 55
20 13 9 9 18 18 12 9 18 34 40 51 59 64 68 71 79 89 96 99 95 98 101 104 102 101 101 90 92 97 89 45 32 35 71 75 67 61 61 53 53 54 52
8 4 6 8 9 9 14 18 19 23 24 27 32 44 53 61 72 78 84 90 95 104 103 99 98 104 107 103 94 90 100 81 48 41 53 56 67 72 64 56 56 53 49
7 13 17 19 20 22 23 25 30 37 38 41 42 44 51 56 59 57 65 86 91 96 97 97 93 97 98 104 102 84 89 99 87 68 47 47 53 56 61 59 59 57 48
Wind_Direction_850mb
171 166 163 165 165 160 158 156 156 157 158 158 158 158 160 159 156 152 148 144 140 133 131 128 123 119 115 115 115 111 107 103 92 85 79 70 60 56 61 66 70 75 75
167 166 165 167 168 163 159 159 158 158 158 160 159 159 158 157 154 152 149 146 139 133 129 125 122 119 119 120 118 116 112 107 93 86 79 67 62 54 51 59 66 69 74
169 168 167 168 169 165 161 160 159 158 159 161 161 159 156 155 155 152 150 147 141 137 131 128 127 125 125 123 120 116 109 101 93 92 85 71 60 52 48 45 53 65 68
171 169 169 170 171 167 164 163 162 159 160 163 162 157 155 156 155 153 151 147 143 140 136 136 135 132 129 128 129 122 114 105 94 83 74 65 56 40 36 38 42 46 55
174 171 173 173 173 170 167 166 165 163 162 163 161 157 155 154 154 154 152 149 148 143 142 143 140 137 134 132 133 128 121 113 102 89 72 63 42 21 24 20 25 27 34
176 173 175 175 175 173 171 169 168 167 167 166 163 162 159 158 159 158 155 154 151 149 150 152 148 144 140 137 136 139 135 132 126 110 86 67 38 22 15 13 14 14 9
179 177 177 177 177 177 174 173 172 171 172 171 168 167 166 166 165 163 161 160 159 157 159 160 159 156 151 147 144 150 149 144 134 118 79 68 33 8 8 358 0 356 355
186 183 180 177 178 180 178 177 176 177 176 176 173 174 173 172 172 171 170 168 167 165 168 170 171 169 166 162 158 160 163 167 140 153 110 77 49 356 358 356 348 341 333
189 191 182 179 179 183 183 184 183 183 183 184 182 180 182 181 181 180 179 176 175 176 177 179 180 180 181 179 177 175 171 179 190 191 149 84 56 343 342 340 336 328 322
172 186 188 185 184 186 187 189 192 192 193 192 193 191 190 191 191 190 189 186 184 184 184 187 190 192 194 197 198 197 189 184 181 191 173 57 18 355 337 327 319 319 329
173 176 186 194 194 192 193 194 197 200 204 203 202 202 202 201 201 201 200 198 195 194 194 194 197 201 201 204 207 206 209 202 196 196 206 162 3 354 329 323 304 299 320
182 179 182 193 197 199 200 201 201 204 207 210 211 210 209 210 211 211 210 206 204 202 203 206 207 208 210 209 208 201 200 192 189 207 203 247 295 325 320 318 300 291 297
198 196 208 199 197 200 208 209 209 212 215 216 217 218 217 216 218 218 218 213 210 209 208 210 214 216 216 217 216 214 218 204 186 191 213 256 279 292 303 308 286 277 281
209 183 219 234 191 215 229 220 225 228 227 225 222 218 219 220 219 219 222 222 220 217 217 216 217 218 219 222 226 227 228 222 199 205 227 248 248 274 288 297 282 268 254
215 207 201 217 222 233 237 224 218 230 254 244 237 227 223 223 226 225 224 224 224 222 221 222 222 222 224 225 229 232 232 230 219 220 232 240 253 265 278 286 275 257 246
256 221 222 232 218 220 208 205 209 210 291 254 244 239 231 228 229 230 229 227 226 225 225 225 226 228 229 231 233 236 238 238 225 227 237 247 253 257 263 269 263 256 236
262 244 219 230 199 192 202 245 229 259 234 242 246 243 242 235 232 234 233 230 228 227 227 227 228 231 232 233 234 235 237 236 228 228 236 244 242 250 259 258 253 252 233
254 260 240 217 219 213 227 237 225 234 197 239 242 240 241 238 242 235 238 236 232 227 227 226 226 228 232 234 237 234 234 231 227 225 232 239 246 254 255 249 248 253 237
288 261 229 220 225 222 225 218 225 211 219 215 227 243 246 247 241 244 242 238 238 232 230 230 229 228 229 230 232 231 231 229 234 230 228 234 244 253 255 251 250 252 252
257 267 202 189 202 229 229 236 222 236 231 232 232 242 245 245 244 245 244 245 243 241 236 233 233 231 231 233 235 232 233 234 236 235 236 237 242 250 261 262 256 253 256
233 234 192 180 179 211 230 230 235 234 241 237 245 243 249 250 244 246 247 247 244 244 244 243 243 242 239 238 237 238 238 234 233 239 238 244 249 257 265 264 263 264 262
236 218 208 207 205 210 221 246 245 244 245 244 251 251 253 259 259 251 249 250 247 246 246 246 244 245 245 242 236 235 248 240 233 233 236 240 250 257 263 262 267 266 262
104 135 213 220 215 180 200 226 242 250 249 249 251 250 254 252 256 259 256 246 254 253 249 246 244 243 244 242 234 230 233 237 238 235 236 238 241 252 263 259 263 263 256
115 125 150 189 221 230 257 222 223 240 254 257 264 265 264 260 261 261 258 260 260 258 253 250 245 242 238 237 233 237 239 252 223 234 237 237 237 244 253 258 259 258 258
124 199 244 267 262 236 242 258 260 260 267 269 264 265 263 266 267 267 267 267 265 261 260 258 245 244 242 238 237 238 240 233 235 234 229 235 239 242 242 247 258 257 263
2 319 292 278 269 270 274 278 281 280 282 281 281 288 279 276 279 277 277 273 271 266 262 261 255 249 242 238 238 240 242 235 230 234 228 230 230 232 241 248 256 255 254